Location: Banff
(51.1667°N, 115.5667°W)
Time: 09:36:48
(UTC+00:00)

A-11 Canister half - Pass Details

Date: 02 December 2020
Orbit: 1524 x 1684 km, 47.3° (Epoch: 20 January)

Event Time Altitude Azimuth Distance (km) Brightness Sun altitude
Exits shadow 13:38:19 - 239° (WSW) 4,778 11.2 -16.0°
Reaches altitude 10° 13:41:03 10° 236° (SW) 3,945 10.8 -15.6°
Maximum altitude 13:50:56 60° 160° (SSE) 1,862 9.6 -14.2°
Drops below altitude 10° 14:00:39 10° 84° (E) 3,877 12.2 -12.7°
Sets 14:03:47 0° 81° (E) 4,844 12.8 -12.3°
